Weather in Ålbæk

Denmark     57°35′34″N   10°24′45″E
temp.,
°C
wind,
m/s
gust,
m/s
humid.,
%
clouds,
%
prec.,
mm/h
press.,
hPa
HPBL,
m
26 february, fri
fri2601:00+6w1019815 0.0 1019762
04:00+6w1018867 0.0 1019747
07:00+6wnw817804 0.0 1019663
10:00+7w1017731 0.0 1020738
13:00+8wnw1118691 0.0 1022737
16:00+8wnw814680 0.0 1022465
19:00+6nw46750 0.0 1024100
22:00+4n12760 0.0 102722
27 february, sat
sat2701:00+4sw11770 0.0 103022
04:00+3sw23750 0.0 103026
07:00+3sw347920 0.0 103268
10:00+5ssw457944 0.0 1032148
13:00+7sw357435 0.0 1032254
16:00+7w6118286 0.0 1032443
19:00+5w599293 0.0 1031252
22:00+4wnw339295 0.0 103158
28 february, sun
sun2801:00+3nnw238092 0.0 103128
04:00+3nnw22790 0.0 103122
07:00+3nne22800 0.0 103222
10:00+4e11820 0.0 103374
13:00+6ese11720 0.0 1033165
16:00+6se22760 0.0 103263
19:00+4s33830 0.0 103231
22:00+4ssw34800 0.0 103242
1 march, mon
mon101:00+3ssw34890 0.0 103375
04:00+3ssw47900 0.0 1032147
07:00+3sw59840 0.0 1031195
10:00+5sw47790 0.0 1031165
13:00+8sw35696 0.0 1032166
16:00+8wsw46630 0.0 1031149
19:00+6wsw47740 0.0 1031123
22:00+5wsw58790 0.0 1031151
2 march, tue
tue201:00+5wsw59790 0.0 1031170
04:00+5wsw510810 0.0 1030199
07:00+5wsw510840 0.0 1030206
10:00+6wsw58740 0.0 1030198
13:00+8wsw57650 0.0 1030252
16:00+8wsw46700 0.0 1029292
19:00+5wsw47850 0.0 1028167
22:00+4wsw510894 0.0 1027253